Location: Babice
(50.3480°N, 22.9363°E)
Time: 12:47:34
(UTC+00:00)

Cosmos 1536 - Pass Details

Date: 14 July 2020
Orbit: 539 x 560 km, 82.5° (Epoch: 07 August)

Event Time Altitude Azimuth Distance (km) Brightness Sun altitude
Exits shadow 00:27:19 13° 161° (SSE) 1,669 4.9 -13.8°
Maximum altitude 00:30:41 41° 93° (E) 818 3.9 -13.6°
Drops below altitude 10° 00:34:31 10° 23° (NNE) 1,849 7.0 -13.3°
Sets 00:36:46 0° 16° (NNE) 2,746 8.1 -13.1°
